When you browse on this site, cookies collect data to enhance your experience and personalize the content and advertising you see.
Visit our Privacy Policy to learn more. By continuing to use the site, you agree to this use of cookies and data.
  • In Österreich
  • Länderverzeichnis
  • Für 7 Tage
  • Wassertemperatur
  • Satellitenkarten
  • Wetterkarte
  • News
  • Widgets
  • user-avatar
    Anmelden

    Stündliche Wetter Lubango

    Heute, 16 Februar, Samstag

    Zeit Temperatur Niederschläge Wind Luftdruck Luftfeuchtigkeit
    00:00 +16°C° 0 mm 1 m/S 609 mmHg 48%
    01:00 +16°C° 0 mm 1 m/S 609 mmHg 48%
    02:00 +16°C° 0 mm 1 m/S 609 mmHg 48%
    03:00 +18°C° 0 mm 1 m/S 609 mmHg 47%
    04:00 +18°C° 0 mm 1 m/S 609 mmHg 47%
    05:00 +16°C° 0 mm 0 m/S 609 mmHg 48%
    06:00 +16°C° 0 mm 0 m/S 610 mmHg 49%
    07:00 +17°C° 0 mm 0 m/S 610 mmHg 52%
    08:00 +19°C° 0 mm 0 m/S 611 mmHg 47%
    09:00 +21°C° 0 mm 0 m/S 612 mmHg 43%
    10:00 +25°C° 0 mm 1 m/S 612 mmHg 38%
    11:00 +26°C° 0 mm 1 m/S 612 mmHg 36%
    12:00 +28°C° 0 mm 1 m/S 613 mmHg 33%
    13:00 +29°C° 0 mm 1 m/S 612 mmHg 31%
    14:00 +28°C° 0 mm 2 m/S 611 mmHg 34%
    15:00 +27°C° 0 mm 2 m/S 611 mmHg 37%
    16:00 +26°C° 0 mm 2 m/S 610 mmHg 40%
    17:00 +24°C° 0 mm 2 m/S 609 mmHg 43%
    18:00 +21°C° 0 mm 2 m/S 609 mmHg 46%
    19:00 +19°C° 0 mm 2 m/S 608 mmHg 50%
    20:00 +18°C° 0 mm 2 m/S 609 mmHg 51%
    21:00 +17°C° 0 mm 2 m/S 609 mmHg 52%
    22:00 +18°C° 0 mm 1 m/S 609 mmHg 53%
    23:00 +16°C° 0 mm 1 m/S 609 mmHg 54%

    Morgen, 17 Februar, Sonntag

    Zeit Temperatur Niederschläge Wind Luftdruck Luftfeuchtigkeit
    00:00 +16°C° 0 mm 1 m/S 609 mmHg 54%
    01:00 +16°C° 0 mm 1 m/S 609 mmHg 55%
    02:00 +16°C° 0 mm 1 m/S 608 mmHg 54%
    03:00 +16°C° 0 mm 1 m/S 608 mmHg 52%
    04:00 +15°C° 0 mm 1 m/S 608 mmHg 51%
    05:00 +16°C° 0 mm 1 m/S 608 mmHg 50%
    06:00 +18°C° 0 mm 1 m/S 609 mmHg 49%
    07:00 +19°C° 0 mm 1 m/S 609 mmHg 49%
    08:00 +21°C° 0 mm 1 m/S 611 mmHg 42%
    09:00 +24°C° 0 mm 1 m/S 612 mmHg 36%
    10:00 +27°C° 0 mm 1 m/S 613 mmHg 29%
    11:00 +28°C° 0 mm 1 m/S 613 mmHg 28%
    12:00 +29°C° 0 mm 2 m/S 613 mmHg 27%
    13:00 +30°C° 0 mm 2 m/S 613 mmHg 25%
    14:00 +29°C° 0 mm 2 m/S 612 mmHg 28%
    15:00 +28°C° 0 mm 2 m/S 611 mmHg 30%
    16:00 +27°C° 0 mm 2 m/S 610 mmHg 32%
    17:00 +25°C° 0 mm 2 m/S 609 mmHg 38%
    18:00 +23°C° 0 mm 2 m/S 609 mmHg 43%
    19:00 +19°C° 0 mm 2 m/S 608 mmHg 49%
    20:00 +19°C° 0 mm 2 m/S 608 mmHg 50%
    21:00 +18°C° 0 mm 2 m/S 608 mmHg 51%
    22:00 +18°C° 0 mm 1 m/S 609 mmHg 53%
    23:00 +18°C° 0 mm 1 m/S 609 mmHg 52%

    übermorgen, 18 Februar, Montag

    Zeit Temperatur Niederschläge Wind Luftdruck Luftfeuchtigkeit
    00:00 +18°C° 0 mm 1 m/S 609 mmHg 51%
    01:00 +18°C° 0 mm 1 m/S 609 mmHg 50%
    02:00 +18°C° 0 mm 1 m/S 608 mmHg 48%
    03:00 +18°C° 0 mm 1 m/S 608 mmHg 47%
    04:00 +18°C° 0 mm 1 m/S 608 mmHg 46%
    05:00 +18°C° 0 mm 1 m/S 608 mmHg 46%
    06:00 +18°C° 0 mm 1 m/S 608 mmHg 47%
    07:00 +19°C° 0 mm 1 m/S 609 mmHg 47%
    08:00 +22°C° 0 mm 1 m/S 610 mmHg 40%
    09:00 +25°C° 0 mm 2 m/S 611 mmHg 33%
    10:00 +28°C° 0 mm 2 m/S 612 mmHg 26%
    11:00 +29°C° 0 mm 2 m/S 612 mmHg 24%
    12:00 +30°C° 0 mm 2 m/S 612 mmHg 22%
    13:00 +32°C° 0 mm 2 m/S 612 mmHg 21%
    14:00 +31°C° 0 mm 2 m/S 611 mmHg 23%
    15:00 +30°C° 0 mm 2 m/S 610 mmHg 26%
    16:00 +28°C° 0 mm 3 m/S 609 mmHg 29%
    17:00 +26°C° 0 mm 2 m/S 608 mmHg 38%
    18:00 +23°C° 0 mm 2 m/S 607 mmHg 47%
    19:00 +20°C° 0 mm 2 m/S 607 mmHg 56%
    20:00 +20°C° 0 mm 1 m/S 607 mmHg 59%
    21:00 +20°C° 0 mm 1 m/S 608 mmHg 61%
    22:00 +19°C° 0 mm 1 m/S 609 mmHg 64%
    23:00 +19°C° 0 mm 1 m/S 608 mmHg 65%

    19 Februar, Dienstag

    Zeit Temperatur Niederschläge Wind Luftdruck Luftfeuchtigkeit
    00:00 +18°C° 0 mm 1 m/S 608 mmHg 67%
    01:00 +16°C° 0 mm 0 m/S 608 mmHg 68%
    02:00 +16°C° 0 mm 1 m/S 607 mmHg 66%
    03:00 +16°C° 0 mm 1 m/S 607 mmHg 64%
    04:00 +16°C° 0 mm 1 m/S 606 mmHg 62%
    05:00 +16°C° 0 mm 1 m/S 607 mmHg 58%
    06:00 +18°C° 0 mm 1 m/S 607 mmHg 54%
    07:00 +19°C° 0 mm 1 m/S 608 mmHg 50%
    08:00 +22°C° 0 mm 1 m/S 609 mmHg 44%
    09:00 +25°C° 0 mm 1 m/S 610 mmHg 37%
    10:00 +28°C° 0 mm 1 m/S 612 mmHg 31%
    11:00 +28°C° 0 mm 1 m/S 611 mmHg 32%
    12:00 +28°C° 0 mm 1 m/S 610 mmHg 33%
    13:00 +28°C° 0 mm 1 m/S 610 mmHg 34%
    14:00 +26°C° 0.3 mm 1 m/S 608 mmHg 41%
    15:00 +24°C° 0.3 mm 1 m/S 607 mmHg 47%
    16:00 +22°C° 0.3 mm 1 m/S 606 mmHg 53%
    17:00 +21°C° 0 mm 1 m/S 606 mmHg 56%
    18:00 +21°C° 0 mm 1 m/S 606 mmHg 58%
    19:00 +20°C° 0 mm 1 m/S 606 mmHg 60%
    20:00 +19°C° 0 mm 1 m/S 607 mmHg 63%
    21:00 +19°C° 0 mm 1 m/S 607 mmHg 66%
    22:00 +18°C° 0 mm 1 m/S 607 mmHg 69%
    23:00 +18°C° 0 mm 1 m/S 607 mmHg 71%

    20 Februar, Mittwoch

    Zeit Temperatur Niederschläge Wind Luftdruck Luftfeuchtigkeit
    00:00 +16°C° 0 mm 0 m/S 607 mmHg 73%
    01:00 +16°C° 0 mm 0 m/S 607 mmHg 75%
    02:00 +15°C° 0 mm 0 m/S 607 mmHg 74%
    03:00 +16°C° 0 mm 1 m/S 606 mmHg 74%
    04:00 +16°C° 0 mm 1 m/S 606 mmHg 74%
    05:00 +18°C° 0 mm 1 m/S 607 mmHg 70%
    06:00 +18°C° 0 mm 1 m/S 607 mmHg 66%
    07:00 +19°C° 0 mm 1 m/S 608 mmHg 62%
    08:00 +20°C° 0 mm 2 m/S 609 mmHg 53%
    09:00 +24°C° 0 mm 2 m/S 611 mmHg 44%
    10:00 +27°C° 0 mm 3 m/S 612 mmHg 35%
    11:00 +27°C° 0 mm 2 m/S 611 mmHg 39%
    12:00 +26°C° 0 mm 1 m/S 610 mmHg 42%
    13:00 +25°C° 0 mm 1 m/S 609 mmHg 46%
    14:00 +24°C° 0.1 mm 1 m/S 608 mmHg 49%
    15:00 +24°C° 0.1 mm 1 m/S 608 mmHg 51%
    16:00 +23°C° 0.1 mm 1 m/S 607 mmHg 54%
    17:00 +22°C° 0.3 mm 1 m/S 607 mmHg 57%
    18:00 +21°C° 0.3 mm 1 m/S 607 mmHg 60%
    19:00 +20°C° 0.3 mm 1 m/S 607 mmHg 63%
    20:00 +19°C° 0.2 mm 1 m/S 607 mmHg 65%
    21:00 +19°C° 0.2 mm 1 m/S 608 mmHg 67%
    22:00 +18°C° 0.2 mm 1 m/S 608 mmHg 70%
    23:00 +18°C° 0 mm 1 m/S 608 mmHg 71%

    21 Februar, Donnerstag

    Zeit Temperatur Niederschläge Wind Luftdruck Luftfeuchtigkeit
    00:00 +18°C° 0 mm 1 m/S 607 mmHg 72%
    01:00 +16°C° 0 mm 1 m/S 607 mmHg 73%
    02:00 +16°C° 0 mm 1 m/S 607 mmHg 73%
    03:00 +16°C° 0 mm 1 m/S 607 mmHg 72%
    04:00 +16°C° 0 mm 1 m/S 607 mmHg 71%
    05:00 +18°C° 0 mm 1 m/S 607 mmHg 69%
    06:00 +18°C° 0 mm 1 m/S 608 mmHg 66%
    07:00 +19°C° 0 mm 1 m/S 609 mmHg 64%
    08:00 +22°C° 0 mm 1 m/S 610 mmHg 55%
    09:00 +25°C° 0 mm 1 m/S 611 mmHg 45%
    10:00 +28°C° 0 mm 2 m/S 612 mmHg 36%
    11:00 +28°C° 0 mm 2 m/S 612 mmHg 34%
    12:00 +28°C° 0 mm 2 m/S 611 mmHg 32%
    13:00 +29°C° 0 mm 2 m/S 610 mmHg 30%
    14:00 +28°C° 0 mm 2 m/S 610 mmHg 34%
    15:00 +27°C° 0 mm 2 m/S 609 mmHg 38%
    16:00 +26°C° 0 mm 2 m/S 608 mmHg 42%
    17:00 +25°C° 0 mm 1 m/S 608 mmHg 47%
    18:00 +23°C° 0 mm 1 m/S 608 mmHg 52%
    19:00 +21°C° 0 mm 1 m/S 608 mmHg 58%
    20:00 +21°C° 0 mm 1 m/S 609 mmHg 61%
    21:00 +20°C° 0 mm 1 m/S 609 mmHg 64%
    22:00 +19°C° 0 mm 1 m/S 609 mmHg 67%
    23:00 +18°C° 0 mm 1 m/S 609 mmHg 68%
    Mehr zeigen